Location: Stara Lesna
(49.1528°N, 20.2911°E)
Time: 07:09:27
(UTC+02:00)

Cosmos 44 - Pass Details

Date: 21 September 2019
Orbit: 591 x 771 km, 65.1° (Epoch: 15 October)

Event Time Altitude Azimuth Distance (km) Brightness Sun altitude
Exits shadow 04:53:58 25° 251° (WSW) 1,410 4.3 -15.1°
Maximum altitude 04:56:36 50° 315° (NW) 878 3.6 -14.7°
Drops below altitude 10° 05:01:13 10° 31° (NNE) 2,080 6.5 -14.0°
Sets 05:03:32 0° 37° (NE) 2,965 7.5 -13.6°
